Location: Dalton
(34.7700°N, 84.9700°W)
Time: 17:35:12
(UTC-05:00)

UWE-3 - Visible Passes

Search period start: 22 February 2018 00:00
Search period end: 04 March 2018 00:00
Orbit: 586 x 684 km, 97.6° (Epoch: 21 February)

Date Brightness Start Highest point End Pass type
(mag) Time Alt. Az. Time Alt. Az. Time Alt. Az.
22 Feb ? 19:54:19 10° S 19:58:48 48° W 20:03:16 10° NNW visible
23 Feb ? 20:16:53 10° SSW 20:20:50 27° W 20:24:45 10° NW visible
24 Feb ? 19:01:59 10° SE 19:06:21 42° ENE 19:10:41 10° N visible
24 Feb ? 20:40:10 10° SW 20:42:55 16° W 20:45:39 10° WNW visible
25 Feb ? 19:23:36 10° SSE 19:28:14 77° ENE 19:32:49 10° N visible
26 Feb ? 19:45:36 10° S 19:50:11 59° W 19:54:42 10° NNW visible
27 Feb ? 20:08:00 10° SSW 20:12:10 33° W 20:16:17 10° NNW visible
28 Feb ? 20:30:59 10° SW 20:34:13 19° W 20:37:26 10° NW visible
01 Mar ? 19:15:05 10° SSE 19:19:38 61° ENE 19:24:05 10° N visible
01 Mar ? 20:55:49 10° W 20:56:20 10° W 20:56:51 10° W visible
02 Mar ? 19:36:56 10° S 19:41:32 74° W 19:46:03 10° NNW visible
03 Mar ? 19:59:12 10° SSW 20:03:30 40° W 20:07:45 10° NNW visible
